Miscellaneous Local Product
Issued by NWS Hastings, NE

Home | Current Version | Previous Version | Text Only | Print | Product List | Glossary On
Versions: 1 2 3 4 5 6 7 8 9 10 11 12 13 14 15 16 17 18 19 20 21 22 23 24 25 26 27 28 29 30 31 32 33 34 35 36 37 38 39 40 41 42 43 44 45 46 47 48 49 50
000
AXUS43 KGID 250302
MISGRI

GID CWA HOURLY WEATHER ROUNDUP
NATIONAL WEATHER SERVICE HASTINGS NE
900 PM CST WED DEC 24 2014

NOTE: "FAIR" INDICATES FEW OR NO CLOUDS BELOW 12,000 FEET WITH NO
SIGNIFICANT WEATHER AND/OR OBSTRUCTIONS TO VISIBILITY.

...SOUTH CENTRAL NEBRASKA...

CITY           SKY/WX    TMP DP  RH WIND       PRES   REMARKS
GRAND ISLAND   CLEAR     33  22  63 S14       29.63F WCI  23
HASTINGS       CLEAR     32  21  64 S10       29.63F WCI  24
KEARNEY        PTCLDY    30  21  69 S9        29.62F WCI  22
ORD            PTCLDY    29  22  75 SW5       29.57F WCI  24
YORK           CLEAR     30  25  80 S8        29.66F WCI  23
AURORA         CLEAR     32  23  70 SW9       29.65S WCI  24
LEXINGTON      MOCLDY    36  26  65 SW9       29.60F WCI  29
HOLDREGE       PTCLDY    32  22  69 S7        29.62F WCI  25
HEBRON         CLEAR     32  24  71 S10       29.69F WCI  24

...NEBRASKA PANHANDLE...

CITY           SKY/WX    TMP DP  RH WIND       PRES   REMARKS
CHADRON        CLOUDY    29  22  75 CALM      29.46F
ALLIANCE       CLOUDY    34  26  72 SW10      29.49F WCI  26
SCOTTSBLUFF    CLOUDY    37  27  67 S6        29.49F WCI  32
SIDNEY         MOCLDY    27  20  75 SW6       29.54F WCI  20

...WESTERN AND NORTH CENTRAL NEBRASKA...

CITY           SKY/WX    TMP DP  RH WIND       PRES   REMARKS
VALENTINE      CLOUDY    30  25  81 SW3       29.49F
AINSWORTH      MOCLDY    32  25  76 SW9       29.51F WCI  24
ONEILL         CLEAR     28  24  84 S8        29.56F WCI  20
BROKEN BOW     PTCLDY    31  23  72 CALM      29.56F
IMPERIAL       MOCLDY    32  23  69 SW8       29.57F WCI  25
NORTH PLATTE   CLOUDY    34  23  64 W3        29.57F
MCCOOK         MOCLDY    36  23  59 SW9       29.61F WCI  29

...EASTERN NEBRASKA...

CITY           SKY/WX    TMP DP  RH WIND       PRES   REMARKS
NORFOLK        PTCLDY    23  21  92 SE6       29.61F WCI  16
SO SIOUX CITY  PTCLDY    28  25  88 SE8       29.67F WCI  20
TEKAMAH        PTCLDY    30  27  88 S9        29.70F WCI  22
COLUMBUS       CLEAR     28  21  74 S5        29.66F WCI  23
ALBION         PTCLDY    30  24  78 S3        29.62F
OMAHA EPPLEY   PTCLDY    29  26  89 S10       29.73F WCI  20
OFFUTT AFB     PTCLDY    29  27  90 S8        29.72F WCI  21
MILLARD        PTCLDY    28  26  90 SE5       29.72F WCI  23
LINCOLN        PTCLDY    26  24  92 SE6       29.71F WCI  19
NEBRASKA CITY  CLEAR     29  29 100 S10       29.74F WCI  20
BEATRICE       PTCLDY    30  28  91 S9        29.72F WCI  21
FALLS CITY     CLEAR     30  26  85 S7        29.77F WCI  23

...NORTHERN KANSAS...

CITY           SKY/WX    TMP DP  RH WIND       PRES   REMARKS
GOODLAND       CLOUDY    36  18  48 SW15      29.61F WCI  27
HILL CITY      CLEAR     34  14  43 SW6       29.66F WCI  29
NORTON         CLEAR     34  16  47 SW7       29.63F WCI  28
PHILLIPSBURG   CLEAR     34  21  60 SW3       29.67F
SMITH CENTER   CLEAR     28  21  74 S8        29.68F WCI  20
BELOIT         CLEAR     32  25  74 S9        29.71F WCI  24
HAYS           CLEAR     30  16  55 S8        29.70F WCI  23
RUSSELL        CLEAR     32  23  69 S12       29.70F WCI  23
CONCORDIA      CLEAR     34  24  67 S16       29.72F WCI  24
SALINA         CLEAR     33  26  75 S8        29.76F WCI  26
TOPEKA         CLEAR     32  28  85 S3        29.82F



USA.gov is the U.S. government's official web portal to all federal, state and local government web resources and services.